Total_Precipitation_Accumulation
0.00 0.00 0.00 0.01 0.08 0.04 0.00 0.00 0.00 0.00 0.00 0.00 0.00 0.00 0.00 0.00 0.01 0.13 0.03 0.00 0.00 0.00 0.00 0.01 0.02 0.02 0.02 0.02 0.02 0.03 0.04 0.03 0.02 0.05 0.03 0.04 0.02 0.01 0.01 0.01 0.01 0.01 0.01 0.02 0.07 0.12 0.13 0.14 0.21
0.00 0.00 0.00 0.01 0.04 0.01 0.00 0.00 0.00 0.00 0.00 0.00 0.00 0.00 0.00 0.00 0.00 0.00 0.00 0.00 0.00 0.00 0.00 0.01 0.02 0.05 0.07 0.04 0.03 0.05 0.04 0.02 0.03 0.05 0.04 0.05 0.02 0.01 0.01 0.01 0.01 0.02 0.02 0.02 0.05 0.11 0.14 0.15 0.17
0.00 0.01 0.01 0.01 0.00 0.00 0.00 0.00 0.00 0.00 0.00 0.00 0.00 0.00 0.00 0.00 0.00 0.00 0.00 0.00 0.00 0.01 0.01 0.04 0.06 0.13 0.16 0.10 0.09 0.12 0.07 0.06 0.06 0.05 0.05 0.06 0.04 0.05 0.03 0.01 0.02 0.02 0.03 0.03 0.03 0.06 0.11 0.15 0.17
0.00 0.00 0.00 0.00 0.00 0.00 0.00 0.00 0.00 0.00 0.00 0.00 0.00 0.00 0.00 0.00 0.00 0.00 0.00 0.00 0.00 0.02 0.04 0.08 0.12 0.20 0.22 0.12 0.13 0.20 0.13 0.10 0.07 0.04 0.05 0.06 0.04 0.05 0.01 0.01 0.04 0.03 0.03 0.02 0.02 0.04 0.08 0.13 0.17
0.00 0.00 0.00 0.00 0.00 0.00 0.00 0.00 0.00 0.00 0.00 0.00 0.00 0.00 0.00 0.00 0.00 0.00 0.00 0.00 0.01 0.02 0.04 0.09 0.17 0.18 0.19 0.16 0.20 0.28 0.22 0.16 0.08 0.04 0.06 0.05 0.05 0.04 0.02 0.03 0.03 0.03 0.03 0.01 0.02 0.02 0.04 0.06 0.10
0.01 0.00 0.01 0.01 0.00 0.00 0.00 0.00 0.00 0.00 0.00 0.00 0.00 0.00 0.00 0.00 0.00 0.00 0.01 0.01 0.02 0.02 0.03 0.09 0.12 0.13 0.16 0.20 0.25 0.32 0.32 0.21 0.08 0.04 0.06 0.05 0.04 0.03 0.03 0.04 0.03 0.03 0.01 0.01 0.01 0.01 0.01 0.01 0.02
0.00 0.00 0.01 0.00 0.00 0.00 0.00 0.00 0.00 0.00 0.00 0.00 0.00 0.00 0.00 0.00 0.00 0.01 0.04 0.08 0.06 0.04 0.03 0.08 0.09 0.08 0.13 0.21 0.21 0.32 0.42 0.26 0.10 0.05 0.06 0.06 0.04 0.03 0.03 0.02 0.02 0.01 0.01 0.00 0.00 0.01 0.00 0.00 0.01
0.01 0.00 0.00 0.00 0.00 0.01 0.00 0.00 0.00 0.00 0.00 0.00 0.00 0.00 0.00 0.00 0.00 0.02 0.07 0.07 0.04 0.03 0.01 0.02 0.03 0.06 0.11 0.14 0.19 0.28 0.54 0.44 0.12 0.06 0.06 0.06 0.04 0.03 0.02 0.00 0.00 0.01 0.01 0.00 0.00 0.00 0.00 0.00 0.01
0.01 0.01 0.01 0.00 0.00 0.01 0.01 0.01 0.01 0.00 0.00 0.00 0.00 0.00 0.00 0.00 0.00 0.01 0.02 0.01 0.01 0.00 0.00 0.00 0.01 0.02 0.06 0.11 0.19 0.28 0.43 0.45 0.19 0.09 0.06 0.05 0.05 0.07 0.04 0.00 0.00 0.01 0.00 0.00 0.00 0.00 0.00 0.00 0.01
0.01 0.01 0.02 0.02 0.02 0.01 0.02 0.02 0.01 0.00 0.00 0.00 0.00 0.00 0.00 0.00 0.00 0.00 0.00 0.00 0.00 0.00 0.00 0.00 0.01 0.01 0.01 0.04 0.15 0.18 0.20 0.24 0.14 0.13 0.06 0.06 0.16 0.14 0.03 0.00 0.00 0.01 0.00 0.00 0.00 0.00 0.00 0.00 0.00
0.02 0.01 0.03 0.04 0.04 0.01 0.01 0.00 0.00 0.01 0.01 0.01 0.00 0.00 0.00 0.00 0.00 0.00 0.00 0.00 0.00 0.00 0.00 0.00 0.00 0.00 0.01 0.07 0.13 0.15 0.22 0.27 0.28 0.23 0.09 0.09 0.14 0.06 0.00 0.00 0.01 0.01 0.00 0.00 0.00 0.00 0.00 0.00 0.00
0.04 0.02 0.01 0.01 0.03 0.02 0.01 0.01 0.00 0.01 0.01 0.01 0.00 0.00 0.00 0.00 0.00 0.00 0.00 0.00 0.00 0.00 0.00 0.00 0.00 0.00 0.00 0.03 0.11 0.16 0.25 0.32 0.29 0.16 0.04 0.03 0.05 0.02 0.00 0.00 0.01 0.01 0.01 0.00 0.00 0.00 0.00 0.00 0.00
0.04 0.06 0.03 0.02 0.04 0.05 0.02 0.02 0.02 0.02 0.01 0.00 0.00 0.00 0.00 0.01 0.01 0.01 0.00 0.00 0.00 0.00 0.00 0.00 0.00 0.00 0.00 0.02 0.05 0.10 0.26 0.32 0.31 0.22 0.05 0.03 0.02 0.01 0.00 0.00 0.00 0.00 0.01 0.00 0.00 0.00 0.00 0.00 0.01
0.04 0.06 0.05 0.06 0.06 0.04 0.03 0.02 0.03 0.02 0.02 0.01 0.00 0.00 0.01 0.02 0.03 0.03 0.01 0.00 0.00 0.00 0.00 0.00 0.00 0.00 0.00 0.00 0.01 0.06 0.10 0.14 0.22 0.16 0.03 0.03 0.02 0.00 0.00 0.00 0.00 0.00 0.00 0.01 0.00 0.00 0.00 0.01 0.01
0.01 0.03 0.04 0.03 0.02 0.01 0.01 0.01 0.03 0.02 0.02 0.03 0.01 0.01 0.03 0.04 0.03 0.03 0.04 0.02 0.01 0.01 0.00 0.00 0.00 0.00 0.00 0.00 0.01 0.03 0.05 0.09 0.11 0.10 0.03 0.02 0.02 0.02 0.00 0.00 0.01 0.02 0.02 0.02 0.01 0.00 0.00 0.00 0.01
0.00 0.00 0.00 0.00 0.01 0.01 0.00 0.02 0.02 0.02 0.01 0.03 0.01 0.02 0.03 0.04 0.06 0.06 0.08 0.08 0.05 0.04 0.02 0.01 0.00 0.00 0.00 0.00 0.00 0.00 0.01 0.06 0.12 0.15 0.07 0.04 0.06 0.06 0.03 0.03 0.05 0.05 0.03 0.03 0.02 0.00 0.00 0.00 0.00
0.00 0.00 0.00 0.01 0.02 0.01 0.01 0.01 0.01 0.01 0.01 0.01 0.02 0.01 0.02 0.04 0.08 0.10 0.11 0.12 0.11 0.10 0.07 0.04 0.02 0.01 0.00 0.00 0.00 0.01 0.02 0.06 0.10 0.12 0.09 0.15 0.24 0.20 0.13 0.13 0.13 0.11 0.08 0.05 0.03 0.02 0.01 0.00 0.00
0.01 0.01 0.01 0.02 0.04 0.03 0.02 0.01 0.00 0.00 0.00 0.00 0.01 0.01 0.00 0.01 0.03 0.07 0.10 0.16 0.17 0.15 0.11 0.07 0.05 0.04 0.02 0.02 0.03 0.03 0.03 0.04 0.07 0.10 0.21 0.48 0.56 0.42 0.34 0.31 0.22 0.15 0.16 0.16 0.13 0.08 0.05 0.03 0.01
0.02 0.02 0.01 0.01 0.01 0.01 0.01 0.00 0.00 0.00 0.00 0.00 0.00 0.01 0.00 0.00 0.00 0.01 0.02 0.06 0.11 0.10 0.06 0.04 0.05 0.06 0.05 0.04 0.04 0.06 0.07 0.07 0.08 0.12 0.16 0.33 0.46 0.42 0.42 0.43 0.37 0.27 0.22 0.25 0.26 0.25 0.19 0.11 0.04
0.02 0.01 0.01 0.01 0.01 0.00 0.00 0.00 0.00 0.00 0.00 0.00 0.00 0.00 0.00 0.00 0.00 0.00 0.00 0.01 0.01 0.02 0.03 0.03 0.03 0.07 0.13 0.15 0.18 0.22 0.21 0.16 0.14 0.14 0.18 0.26 0.29 0.29 0.29 0.42 0.46 0.36 0.33 0.36 0.42 0.41 0.35 0.24 0.11
0.00 0.00 0.00 0.00 0.00 0.00 0.00 0.00 0.00 0.00 0.00 0.00 0.00 0.00 0.00 0.00 0.00 0.00 0.00 0.01 0.01 0.01 0.04 0.08 0.14 0.23 0.35 0.49 0.66 0.74 0.72 0.58 0.42 0.30 0.30 0.34 0.35 0.29 0.27 0.38 0.45 0.36 0.37 0.43 0.46 0.41 0.46 0.44 0.28
0.00 0.00 0.00 0.01 0.01 0.00 0.00 0.00 0.00 0.00 0.00 0.00 0.00 0.00 0.00 0.00 0.00 0.01 0.02 0.03 0.05 0.09 0.15 0.25 0.36 0.50 0.61 0.77 0.91 1.00 1.01 0.86 0.69 0.57 0.48 0.39 0.33 0.28 0.23 0.24 0.26 0.25 0.28 0.26 0.22 0.28 0.48 0.64 0.57
0.00 0.00 0.00 0.00 0.01 0.01 0.00 0.01 0.01 0.03 0.04 0.06 0.04 0.02 0.00 0.00 0.02 0.06 0.09 0.10 0.14 0.24 0.36 0.46 0.67 0.80 0.88 0.90 0.93 1.05 1.04 0.95 0.85 0.73 0.67 0.56 0.41 0.32 0.27 0.24 0.24 0.24 0.25 0.19 0.19 0.29 0.43 0.56 0.69
0.00 0.00 0.00 0.00 0.01 0.01 0.00 0.03 0.09 0.13 0.12 0.13 0.09 0.04 0.01 0.00 0.03 0.12 0.20 0.22 0.27 0.48 0.70 0.83 0.92 0.97 0.92 0.86 0.85 0.92 1.00 1.00 0.96 0.91 0.81 0.60 0.39 0.30 0.31 0.33 0.31 0.24 0.20 0.15 0.18 0.28 0.30 0.34 0.43
0.00 0.00 0.01 0.01 0.02 0.02 0.03 0.09 0.19 0.16 0.11 0.10 0.08 0.04 0.02 0.03 0.03 0.09 0.21 0.31 0.50 0.75 0.99 1.10 1.08 0.96 0.82 0.77 0.80 0.85 0.92 0.97 0.93 0.82 0.68 0.51 0.36 0.30 0.32 0.32 0.28 0.22 0.17 0.14 0.16 0.21 0.16 0.15 0.22
0.00 0.00 0.03 0.03 0.03 0.05 0.10 0.22 0.31 0.21 0.12 0.07 0.05 0.03 0.03 0.07 0.10 0.11 0.18 0.33 0.58 0.87 1.13 1.36 1.31 1.10 0.89 0.82 0.84 0.83 0.84 0.82 0.73 0.63 0.54 0.46 0.38 0.33 0.29 0.28 0.25 0.22 0.18 0.13 0.14 0.12 0.07 0.07 0.12
0.00 0.01 0.03 0.08 0.05 0.05 0.09 0.22 0.24 0.16 0.10 0.06 0.04 0.04 0.05 0.08 0.16 0.23 0.34 0.39 0.57 0.81 1.14 1.34 1.36 1.24 1.09 1.00 0.96 0.94 0.80 0.68 0.57 0.47 0.41 0.37 0.31 0.24 0.23 0.25 0.25 0.22 0.17 0.11 0.11 0.09 0.06 0.04 0.05
0.01 0.02 0.05 0.13 0.13 0.11 0.13 0.20 0.15 0.07 0.05 0.03 0.03 0.04 0.06 0.10 0.14 0.24 0.45 0.60 0.81 0.78 0.92 1.06 1.07 1.06 1.06 1.07 1.12 1.06 0.84 0.67 0.57 0.50 0.45 0.36 0.28 0.23 0.22 0.20 0.17 0.14 0.10 0.06 0.05 0.06 0.09 0.07 0.06
0.03 0.05 0.06 0.12 0.17 0.19 0.25 0.27 0.16 0.12 0.10 0.10 0.09 0.10 0.13 0.18 0.20 0.27 0.38 0.45 0.63 0.75 0.79 0.81 0.84 0.89 0.92 0.89 0.90 0.82 0.64 0.53 0.48 0.46 0.42 0.30 0.23 0.19 0.18 0.13 0.10 0.13 0.11 0.07 0.08 0.07 0.06 0.06 0.07
0.10 0.12 0.12 0.20 0.26 0.30 0.43 0.45 0.29 0.27 0.29 0.31 0.33 0.32 0.35 0.34 0.33 0.36 0.41 0.50 0.55 0.60 0.64 0.69 0.68 0.70 0.72 0.66 0.61 0.52 0.41 0.38 0.43 0.43 0.34 0.23 0.19 0.17 0.16 0.13 0.08 0.09 0.13 0.12 0.12 0.12 0.08 0.07 0.06